Weather in Novotroitskoye

Russia / Orenburg Oblast     52°22′20″N   55°18′47″E
temp.,
°C
wind,
m/s
gust,
m/s
humid.,
%
clouds,
%
prec.,
mm/h
press.,
hPa
HPBL,
m
27 february, sat
sat2723:00−17se6119698 0.1 1020320
02:00−16se71395100 0.1 1017402
05:00−15sse91594100 0.4 1013467
08:00−14se91595100 4.0 1008531
11:00−9sse81394100 5.8 1006583
14:00−5sse71195100 1.1 1003504
17:00−3sse3596100 1.9 1002265
20:00−2ssw359899 0.2 1002196
28 february, sun
sun2823:000ssw489999 1.1 1001379
02:000sw4798100 0.9 999361
05:00−1ssw359999 1.3 999217
08:00−2sw4897100 1.3 998360
11:00−1sw4797100 1.9 999411
14:00−1wsw579397 0.4 1001451
17:00−6wnw589296 0.5 1004361
20:00−10w499499 0.2 1006292
1 march, mon
mon123:00−12w369597 0.3 1010150
02:00−13w359595 0.2 1011136
05:00−14w349693 0.4 101397
08:00−15w339699 0.3 101567
11:00−13w349397 0.4 1017274
14:00−11wnw349196 0.1 1018385
17:00−11wnw359197 0.3 1019338
20:00−15wnw469575 0.0 1021132
2 march, tue
tue223:00−19nw349681 0.1 102242
02:00−21nw239785 0.0 102220
05:00−23wnw229760 0.0 102220
08:00−25wsw1110029 0.0 102220
11:00−20ssw239530 0.0 1021128
14:00−18ssw469444 0.0 1020271
17:00−16ssw589570 0.0 1018338
20:00−18s4998100 0.0 1017205
3 march, wed
wed323:00−16s51096100 0.2 1015311
02:00−14sse61095100 0.3 1012312
05:00−8sse61295100 1.1 1009487
08:00−5s71395100 1.2 1006661
11:00−3s81395100 2.0 1005778
14:00−1s81296100 0.8 1004803
17:00−1ssw6995100 1.6 1002674
20:00−3sw4797100 0.4 1002212